Regional Weather Roundup
Issued by NWS

Home | Current Version | Previous Version | Text Only | Print | Product List | Glossary Off
Versions: 1 2 3 4 5 6 7 8 9 10 11 12 13 14 15 16 17 18 19 20 21 22 23 24 25 26 27 28 29 30 31 32 33 34 35 36 37 38 39 40 41 42 43 44 45 46 47 48 49 50

000
ASUS43 KLMK 291710
RWRKY
KENTUCKY REGIONAL WEATHER ROUNDUP
NATIONAL WEATHER SERVICE LOUISVILLE KY
100 PM EDT WED OCT 29 2014

NOTE "FAIR" INDICATES FEW OR NO CLOUDS BELOW 12,000 FEET
WITH NO SIGNIFICANT WEATHER AND/OR OBSTRUCTIONS TO VISIBILITY.

KYZ001>023-026-027-061>063-070>075-291800-
WESTERN AND SOUTH CENTRAL KENTUCKY

CITY           SKY/WX    TMP DP  RH WIND       PRES   REMARKS
PADUCAH        SUNNY     63  41  44 N8        30.16F
HENDERSON      SUNNY     59  39  47 NW10      30.15F
OWENSBORO      SUNNY     60  40  47 W10       30.15F
HOPKINSVILLE   SUNNY     62  51  69 SW5       30.15F
BOWLING GREEN  SUNNY     61  48  62 SW7       30.15F
GLASGOW        SUNNY     60  47  61 SW8       30.14F
$$

KYZ024-025-028>034-038-045-046-053-291800-
NORTH CENTRAL KENTUCKY

CITY           SKY/WX    TMP DP  RH WIND       PRES   REMARKS
LOUISVILLE/SDF MOSUNNY   63  36  36 W17G25    30.10F
LOUISVILLE/LOU SUNNY     61  35  37 W15G23    30.10F
FORT KNOX      SUNNY     59  41  51 W13       30.10F
$$

KYZ035>037-039>044-047>052-055>060-089>105-291800-
NORTHEAST KENTUCKY

CITY           SKY/WX    TMP DP  RH WIND       PRES   REMARKS
LEXINGTON      SUNNY     62  40  44 W15       30.09F
COVINGTON      MOSUNNY   58  35  42 W14G22    30.06F
FRANKFORT      SUNNY     60  38  43 W10G18    30.09F
$$

KYZ054-064>069-076>088-106>120-291800-
SOUTHEAST KENTUCKY

CITY           SKY/WX    TMP DP  RH WIND       PRES   REMARKS
JACKSON        SUNNY     59  46  62 CALM      30.10F
LONDON         SUNNY     59  45  59 W5        30.12F
SOMERSET       SUNNY     57  43  58 CALM      30.14F
MIDDLESBORO    CLOUDY    56  47  73 CALM      30.13F
MONTICELLO     SUNNY     62  46  55 SW3       30.15F
$$




USA.gov is the U.S. government's official web portal to all federal, state and local government web resources and services.